Volver al catálogo

STARLINK-34364

ActivoComunicacionesVLEO
NORAD 64495·PAYLOAD·🇺🇸 United States

Lanzado Jun 23, 2025 desde Cape Canaveral Space Force Station

Loading…

Próximos Pases (próximas 24 horas)

TLE

ActualizadoSource: CelesTrak SupGP

Época: Sep 14, 2026, 22:53 UTC

1 64495C 25133Z   26257.95395833  .00038533  00000+0  11387-2 0  2579
2 64495  53.1596 311.3265 0001260  87.9625 316.6778 15.34364295    17

Sigue STARLINK-34364 en tiempo real con AllMySat

Download on the App Store